Location: Brachbach
(49.1847°N, 9.7240°E)
Time: 13:01:10
(UTC+00:00)

Nimbus 7 Rocket - Pass Details

Date: 11 August 2024
Orbit: 921 x 965 km, 99.4° (Epoch: 14 September)

Event Time Altitude Azimuth Distance (km) Brightness Sun altitude
Rises 00:11:31 0° 16° (NNE) 3,597 8.9 -24.9°
Reaches altitude 10° 00:13:58 10° 18° (NNE) 2,644 7.8 -24.8°
Maximum altitude 00:19:53 78° 105° (ESE) 951 4.3 -24.6°
Enters shadow 00:21:08 57° 175° (S) 1,083 4.4 -24.5°
